Overview Statistics Trail Chart Weather Telemetry Raw packets
 

This is the latest recevied weather packets stored in our database for station/object N0OQA. If no packets are shown the sender has not sent any weather packets the latest 10 day(s).

<< 55 56 57 58 59 60 61 >>
Time Temp. Humidity Pressure Rain* Wind** Luminosity Snow
1787881700 19.44° C 65% 1020.2 hPa 0 mm - - -
1787881100 20° C 63% 1020.2 hPa 0 mm - - -
1787880800 20° C 62% 1020.2 hPa 0 mm - - -
1787880499 20° C 60% 1020.2 hPa 0 mm - - -
1787880199 20.56° C 60% 1020 hPa 0 mm - - -
1787879899 21.11° C 59% 1020 hPa 0 mm - - -
1787879598 21.11° C 58% 1019.9 hPa 0 mm - - -
1787879298 21.67° C 57% 1019.9 hPa 0 mm - - -
1787878998 22.22° C 56% 1019.9 hPa 0 mm - - -
1787878397 22.78° C 54% 1020 hPa 0 mm - - -
1787878097 22.78° C 53% 1020 hPa 0 mm - - -
1787877797 23.33° C 52% 1020 hPa 0 mm - - -
1787876295 23.89° C 47% 1020 hPa 0 mm - - -
1787875389 24.44° C 46% 1020.1 hPa 0 mm - - -
1787875087 23.89° C 46% 1020.1 hPa 0 mm - - -
1787874486 24.44° C 47% 1020 hPa 0 mm - - -
1787872683 25° C 43% 1020.1 hPa 0 mm - - -
1787872383 25° C 43% 1020.2 hPa 0 mm - - -
1787871482 25° C 42% 1020.1 hPa 0 mm - - -
1787871181 25° C 43% 1020.2 hPa 0 mm - - -
1787869980 25° C 43% 1020.3 hPa 0 mm - - -
1787869680 25° C 43% 1020.3 hPa 0 mm - - -
1787869378 25.56° C 42% 1020.4 hPa 0 mm - - -
1787869078 25° C 42% 1020.3 hPa 0 mm - - -
1787868777 25.56° C 42% 1020.2 hPa 0 mm - - -

* Rain since midnight (hover to see other rain measurements)
** Current wind speed in m/s (hover to see current wind gust speed)